ECMWFFLT1_700_rhum_066.txt.gz
RH
101 99 101 98 75 41 23 22 26 39 52 52 42 33 32 32 32 31 31 30 30 30 31 31 31 33 34 32 29 29 31 35 44 53 58 56 52 47 42 35 26 25 30 34 37 40 41 37 31 28 33 40 48 56 62 70 78 84 87 90 93 97 96
101 100 100 101 87 54 29 22 25 33 46 56 54 43 35 33 34 33 32 32 31 31 32 31 32 34 36 34 31 31 30 29 35 47 57 59 55 49 45 38 27 21 24 29 33 37 40 41 37 30 29 32 37 45 52 58 66 75 83 87 89 91 95
100 100 99 101 96 70 38 25 26 31 40 53 61 55 44 37 35 35 34 33 32 33 33 32 32 35 38 37 33 34 34 29 30 40 53 60 59 52 47 42 31 21 19 23 29 33 36 40 42 37 31 29 30 35 42 47 53 61 71 81 86 87 90
100 101 99 100 100 83 53 33 29 31 37 49 62 64 57 47 40 36 35 35 34 34 34 34 33 35 40 39 36 38 39 35 31 35 47 58 62 56 48 44 37 26 19 19 23 29 33 36 41 42 37 31 28 29 33 38 43 48 56 66 76 83 87
100 100 100 100 100 92 70 46 35 32 35 44 58 67 65 58 49 42 38 37 35 35 36 36 34 36 40 40 39 42 45 41 35 34 43 56 63 59 51 46 42 32 22 17 18 24 31 35 37 42 43 38 32 28 28 31 35 39 44 51 61 72 79
100 100 100 100 100 99 85 61 44 36 34 40 53 65 69 66 59 51 45 41 39 37 37 38 37 37 40 40 41 47 51 47 39 35 42 55 63 62 55 48 45 37 26 19 17 19 28 35 37 40 44 44 39 32 28 28 30 32 36 39 46 56 66
101 100 101 100 100 101 93 74 55 43 37 38 48 61 69 71 67 61 55 49 45 41 39 39 39 39 40 41 43 51 55 51 44 39 43 56 65 65 59 52 48 42 31 22 18 17 22 32 38 39 42 46 45 39 32 29 28 29 30 32 36 42 51
100 100 100 100 100 101 98 85 66 52 43 40 46 58 67 72 72 69 64 57 52 48 44 42 41 41 42 43 47 54 56 52 47 44 47 59 69 69 63 58 53 48 39 27 21 18 19 25 35 41 42 44 46 44 39 34 30 29 29 29 30 33 38
100 101 100 100 100 100 100 91 73 58 50 45 47 56 65 71 74 74 71 66 60 55 51 48 47 45 45 47 52 55 55 54 51 47 51 64 73 72 68 63 58 54 47 35 25 21 19 21 30 38 42 44 45 46 45 41 35 32 31 31 29 29 31
100 100 100 100 100 100 100 94 78 63 56 50 47 52 60 69 74 75 74 72 68 63 58 55 53 51 50 52 55 55 56 58 55 50 55 68 75 75 73 69 63 60 56 46 34 26 22 21 23 30 38 44 46 46 47 45 40 33 32 33 32 29 28
100 100 100 100 100 100 100 96 82 68 61 55 49 50 57 67 74 75 75 76 74 70 66 62 59 58 58 57 57 57 59 62 57 52 58 72 77 77 79 77 70 67 65 56 44 34 29 26 23 23 29 39 45 47 46 46 44 38 34 33 33 32 31
100 100 100 100 100 100 101 97 84 72 65 58 52 51 55 63 72 76 75 76 77 76 72 69 65 63 63 63 61 62 63 63 58 56 64 75 78 79 83 83 77 74 73 68 57 46 37 32 28 24 23 29 38 45 48 48 46 43 38 34 33 33 34
100 100 100 100 100 100 101 98 87 75 68 61 55 55 56 59 66 73 76 77 77 78 78 75 71 68 67 68 67 66 66 65 62 63 70 75 75 77 83 87 84 82 81 78 71 62 50 40 35 32 27 24 27 35 43 48 49 47 42 37 34 33 34
100 100 100 100 100 100 101 98 89 78 70 64 59 59 59 58 59 65 74 79 79 79 80 80 77 72 71 73 71 69 70 70 68 70 73 73 74 77 82 87 89 88 88 87 83 77 67 55 46 39 34 29 26 28 32 38 44 48 46 41 38 35 34
100 100 100 100 100 100 101 99 91 80 72 66 62 61 61 59 58 59 67 78 83 81 81 83 83 78 76 76 73 72 75 75 73 76 77 75 76 80 83 87 89 88 89 92 94 92 85 74 62 50 41 36 33 31 29 29 31 37 41 42 42 38 35
99 100 100 100 100 100 101 99 92 84 75 67 63 63 61 58 58 59 63 74 84 86 85 86 87 85 81 78 76 77 81 80 77 80 82 80 81 83 84 87 92 90 86 88 94 100 98 90 80 67 54 45 41 39 36 29 26 27 29 32 35 37 38
100 100 100 100 100 100 101 99 93 86 77 68 62 62 60 57 58 61 66 74 84 89 91 91 91 90 86 81 79 82 85 84 84 85 85 86 90 90 88 88 92 93 90 87 90 97 101 100 94 86 75 63 55 50 42 35 33 31 26 23 23 25 29
101 100 100 100 100 100 101 99 93 86 77 68 62 60 59 59 61 65 70 78 85 90 94 96 97 95 90 85 83 85 89 93 95 92 88 90 94 92 89 91 92 93 94 93 91 92 98 102 100 97 93 83 73 63 52 45 44 37 30 26 24 23 22
101 100 100 100 100 101 101 98 92 86 77 67 63 61 58 60 64 69 75 82 88 93 97 100 99 96 93 90 87 89 94 99 102 98 93 95 94 87 85 91 94 94 96 98 96 92 93 98 100 100 99 94 87 77 66 62 58 46 36 33 31 27 26
101 100 100 100 100 100 101 98 92 86 76 66 62 61 59 61 66 73 81 88 92 96 99 101 100 98 96 93 91 94 100 102 102 101 98 96 91 85 87 94 97 95 95 97 98 94 89 90 93 93 92 92 92 89 81 76 72 62 53 46 39 34 31
101 100 100 100 100 100 101 98 91 84 75 65 60 59 59 61 68 79 88 94 96 98 100 101 101 101 100 97 96 99 103 102 101 100 98 94 89 88 93 98 97 96 96 95 97 97 93 90 89 85 83 85 90 92 89 84 80 76 71 63 56 49 41
101 100 100 100 100 101 102 99 91 82 73 63 58 59 60 63 74 88 97 99 100 101 102 103 103 102 102 101 100 101 102 102 102 100 97 95 95 96 97 96 94 95 95 94 97 101 101 96 89 83 78 79 83 85 83 79 77 78 77 74 71 64 57
101 100 100 100 100 101 102 98 89 80 72 63 57 59 63 69 83 97 102 103 103 103 103 103 103 103 103 103 102 102 101 101 103 103 100 97 99 101 100 97 95 94 92 91 93 99 103 100 94 86 78 76 77 79 80 78 75 73 72 71 74 72 70
100 100 100 100 100 101 100 95 86 78 70 62 57 61 69 78 91 102 104 103 104 103 103 104 104 103 102 102 102 101 101 101 102 104 102 99 99 101 102 99 96 93 91 90 91 94 100 103 102 96 89 85 82 83 86 85 78 73 70 68 70 72 73
100 100 100 100 100 101 100 93 83 75 68 60 57 65 78 88 98 104 104 104 104 102 102 103 103 102 102 102 101 101 100 101 102 102 101 99 99 100 102 100 96 93 94 95 93 92 95 100 104 104 101 98 95 92 92 89 81 77 78 75 71 70 70
100 100 100 100 101 102 98 89 79 73 67 60 60 73 89 98 101 101 101 100 98 95 95 99 101 102 102 101 101 101 100 100 100 99 97 96 94 94 97 100 99 98 99 100 98 94 91 93 99 103 102 103 102 98 95 94 91 89 89 85 79 74 71
100 100 100 100 101 101 95 85 76 70 65 61 67 81 95 101 101 100 99 97 92 91 95 100 101 102 102 101 101 100 100 101 99 94 90 87 85 85 90 95 98 100 102 102 101 98 94 92 94 97 99 102 103 101 99 100 101 99 95 90 85 80 77
99 100 100 100 101 99 92 82 74 69 66 69 79 91 98 101 102 102 102 99 96 97 102 103 103 102 102 102 102 101 100 100 96 89 84 82 82 85 92 97 100 102 102 101 100 100 99 97 95 93 94 97 100 102 103 103 103 101 95 88 83 79 80
100 100 99 100 101 98 90 79 72 70 71 78 89 97 100 101 101 102 102 100 99 100 102 101 102 103 103 103 102 101 101 100 96 88 83 84 87 93 99 101 101 101 100 100 101 103 102 100 98 94 93 93 94 96 99 100 100 99 95 88 82 80 82
100 100 99 101 102 98 88 76 69 70 76 85 95 100 101 101 101 101 102 101 100 102 102 99 98 101 103 103 102 101 101 101 98 93 90 92 95 98 99 99 99 98 98 99 102 104 104 102 100 97 94 92 91 91 93 95 97 98 96 89 83 82 86
100 100 100 102 102 95 84 73 70 75 85 93 100 101 100 100 100 101 101 101 101 102 101 98 97 98 101 103 103 103 103 102 101 100 98 98 98 98 97 97 97 96 96 97 98 99 101 103 102 98 96 95 94 93 92 92 95 98 97 91 84 82 88
101 100 100 102 100 90 78 72 75 81 87 92 98 102 103 101 101 101 99 99 101 102 101 101 102 101 101 101 102 103 103 103 102 101 99 97 97 97 97 96 94 93 93 94 94 95 97 100 101 100 98 96 96 96 95 93 93 95 96 93 86 83 89
101 99 100 103 96 83 76 78 81 82 84 88 95 100 101 99 100 101 101 101 103 103 102 102 102 102 101 101 101 101 100 100 100 100 99 98 97 96 95 93 91 91 90 90 91 92 92 94 97 99 99 97 95 96 97 96 95 94 96 95 89 84 88
100 100 102 101 90 80 81 85 84 80 81 87 91 94 96 98 100 103 104 104 104 103 102 102 101 101 101 101 102 102 101 100 101 101 98 96 94 92 93 92 91 90 89 88 89 89 90 93 95 97 98 96 95 95 97 98 98 97 97 97 91 86 89
99 101 102 97 88 83 85 87 86 84 84 87 92 98 101 101 102 103 104 104 104 103 103 103 102 102 102 102 103 103 102 100 99 97 95 93 91 91 92 92 91 91 90 90 90 90 92 95 96 97 97 96 95 96 97 98 100 101 101 100 95 89 90
100 101 101 97 90 85 85 87 90 91 91 94 100 102 99 95 96 100 103 103 103 101 101 101 100 100 100 100 100 99 99 96 94 93 93 93 93 92 92 93 93 93 93 93 93 94 95 97 97 98 98 98 99 99 99 99 101 103 104 103 98 93 91

ECMWFFLT1_700_rhum_069.txt.gz
RH
94 101 100 100 99 92 89 94 98 100 101 101 100 100 91 70 50 44 49 52 45 37 36 38 37 35 35 35 35 33 31 32 31 29 28 25 22 23 27 35 43 42 34 31 34 33 31 33 39 41 41 40 37 36 42 56 71 80 86 91 95 96 95
79 97 101 100 101 97 92 94 98 100 101 101 100 101 95 80 60 48 47 53 55 46 38 38 39 38 36 35 35 34 33 33 32 31 30 28 25 22 23 28 37 42 38 33 32 32 28 26 32 38 41 41 39 36 36 41 55 69 78 84 89 93 94
63 85 99 100 101 100 96 95 99 100 100 101 100 100 97 85 68 53 47 52 60 57 46 39 40 40 38 37 37 36 36 35 33 31 30 30 28 25 22 24 30 39 42 36 31 31 29 24 24 31 37 41 40 38 35 34 40 53 66 76 82 87 91
54 73 94 100 100 101 100 98 99 100 100 101 100 100 98 88 72 58 50 52 60 65 58 47 41 40 40 40 39 38 37 36 35 34 32 32 30 27 24 23 25 34 43 40 32 31 31 26 21 23 30 37 39 39 37 34 34 39 50 64 74 81 85
56 71 90 100 100 100 101 100 99 100 101 100 100 100 99 91 77 62 55 54 59 67 68 58 47 42 40 41 41 40 38 37 37 37 35 33 32 30 27 24 23 30 40 42 36 32 33 30 23 20 22 30 36 37 37 36 34 33 37 48 61 71 78
60 77 92 100 100 99 102 102 99 99 101 101 100 100 100 96 83 68 59 56 58 66 72 68 58 49 43 41 42 41 40 40 40 39 37 35 34 32 30 26 25 28 36 43 41 35 34 33 28 20 19 24 31 35 36 36 35 34 32 36 46 58 68
72 87 97 100 100 99 101 103 100 99 100 101 100 100 100 98 89 76 66 60 59 65 73 75 68 59 50 44 44 44 42 42 42 41 40 39 36 34 32 29 28 27 33 43 46 39 36 36 32 24 18 19 25 31 35 34 35 35 33 32 35 43 54
86 98 101 100 101 100 100 102 101 100 100 100 100 100 100 100 94 84 73 65 63 67 74 79 75 68 60 52 48 48 46 45 45 43 42 41 39 36 34 33 31 29 32 42 48 44 39 40 36 27 20 17 20 28 34 36 35 35 35 34 32 34 40
94 101 101 99 100 100 100 101 101 101 100 100 100 100 100 101 97 89 78 71 68 70 76 80 78 73 68 61 56 54 52 50 49 47 45 43 42 39 37 36 34 32 33 43 51 49 43 43 41 31 22 19 18 23 31 36 35 34 35 35 32 31 33
98 100 101 100 100 100 100 101 101 101 100 100 100 100 100 101 99 92 83 76 73 73 75 78 79 77 74 69 64 61 58 56 54 52 49 47 45 43 41 39 37 36 38 44 53 53 47 45 45 36 24 20 19 20 26 33 36 35 35 35 34 32 31
100 100 101 101 101 100 100 101 101 101 100 100 100 100 100 101 100 94 86 80 76 73 73 77 80 80 79 76 72 68 64 60 59 58 55 53 50 47 45 43 41 41 43 47 54 57 50 48 50 42 28 22 20 19 22 30 36 37 36 36 36 34 32
102 101 100 101 101 100 100 101 101 101 100 100 100 100 99 99 100 96 88 83 78 73 72 77 81 82 82 81 79 75 69 64 63 63 61 58 55 52 51 48 44 45 48 50 54 58 55 52 53 47 35 25 22 20 20 25 32 38 39 38 38 36 35
103 102 100 101 101 100 100 101 100 101 101 100 100 100 98 96 98 97 92 87 80 73 72 77 80 82 83 85 85 82 75 69 67 67 65 63 60 56 55 53 50 50 52 53 56 61 60 57 55 52 42 30 24 23 22 21 26 34 38 39 40 40 39
102 102 101 101 100 100 101 101 101 102 102 101 100 101 100 96 95 95 94 90 81 72 71 75 79 82 85 87 89 88 83 75 71 69 69 67 64 61 60 60 57 55 55 56 61 67 67 60 58 58 50 37 30 27 25 22 22 27 34 40 42 42 42
101 102 101 100 100 100 100 101 102 103 102 101 100 100 101 99 96 94 93 90 82 73 69 72 77 83 87 89 91 93 90 82 76 74 72 71 69 67 66 65 62 61 61 61 66 74 74 66 63 63 55 45 38 33 29 26 22 23 29 37 43 43 43
100 101 101 100 100 100 100 101 103 102 101 101 100 100 100 100 99 97 92 86 80 75 72 70 74 83 90 92 93 96 95 88 82 78 75 74 74 73 72 70 69 68 65 63 69 78 78 72 67 64 60 55 50 44 37 31 26 24 24 29 37 43 45
100 100 101 100 100 100 100 101 102 102 102 101 100 100 100 100 101 100 95 85 77 75 74 72 75 84 93 95 97 99 99 93 86 80 78 78 79 78 77 76 75 73 67 65 74 82 81 76 70 66 64 62 60 56 47 39 36 31 24 23 29 35 42
100 100 101 100 100 100 100 101 101 101 101 100 100 100 100 100 102 101 95 85 76 72 72 75 84 92 95 97 99 102 102 97 89 83 82 83 84 83 83 83 82 77 70 69 77 83 83 80 75 72 69 67 67 66 58 53 50 39 29 27 26 26 31
100 100 100 100 100 100 100 101 101 101 100 100 100 100 99 101 103 100 93 84 76 71 69 76 91 100 98 98 101 103 103 100 93 88 88 90 91 89 87 88 88 83 77 73 77 83 86 85 84 81 75 70 72 72 66 65 62 49 40 39 32 25 25
100 100 100 100 100 100 100 102 102 101 100 100 100 100 100 102 103 98 90 81 75 72 71 79 94 103 101 101 102 103 103 101 97 95 97 99 98 93 90 94 95 91 85 80 81 86 87 87 89 87 78 70 70 70 69 72 74 66 59 56 47 35 30
100 100 100 100 100 100 101 102 102 101 100 100 100 100 100 102 101 94 85 78 73 72 76 86 98 103 102 103 102 101 102 102 101 100 101 102 99 95 96 101 101 96 90 85 85 89 89 87 87 87 82 74 71 71 72 76 81 80 76 74 69 57 47
100 100 100 100 100 100 101 101 102 101 100 100 101 100 101 102 99 90 81 76 73 74 82 94 102 103 101 102 102 100 101 102 101 101 101 100 98 98 101 104 102 99 94 88 87 90 90 88 87 89 90 86 80 80 83 82 84 87 87 86 84 77 69
100 100 100 100 100 100 101 101 102 101 100 101 100 99 102 102 96 85 78 74 74 80 91 101 104 101 101 101 100 100 100 101 101 100 100 100 100 100 101 102 102 101 97 92 90 91 89 88 87 88 91 92 88 87 88 86 85 87 90 92 91 85 80
100 100 100 100 100 100 100 101 101 100 100 101 100 100 103 101 91 80 76 74 77 88 100 103 102 100 100 100 100 100 100 100 100 100 100 100 101 100 100 101 102 101 99 97 95 92 88 88 87 86 87 90 89 87 87 87 87 85 85 86 89 86 81
100 100 100 101 100 100 101 101 100 100 100 100 100 102 103 97 85 77 74 75 84 96 103 102 100 100 100 100 100 100 100 100 100 101 100 100 100 100 100 101 101 100 100 99 97 92 89 90 91 89 89 90 90 88 86 85 86 84 79 75 77 79 79
100 100 100 100 100 101 102 100 100 100 100 100 101 103 99 90 80 75 76 83 94 102 103 100 100 100 100 100 100 100 100 101 100 100 100 100 100 100 100 101 102 100 98 96 94 91 89 91 94 96 95 92 91 90 88 84 83 82 76 70 70 72 76
100 100 100 100 101 102 101 98 99 100 100 100 102 101 93 84 77 76 81 91 100 103 101 100 100 100 100 100 100 100 100 100 100 100 100 101 101 101 100 101 101 100 97 94 91 88 86 90 95 99 99 95 91 90 90 88 86 83 78 75 75 73 74
100 100 100 100 101 100 98 97 100 101 100 101 102 97 87 80 78 82 90 98 101 101 101 100 100 100 100 100 100 100 100 100 100 100 100 101 101 100 101 102 101 99 97 96 95 92 91 94 97 99 101 99 94 93 94 93 91 88 85 83 81 76 74
100 100 100 100 101 100 99 100 102 101 100 101 98 90 83 82 84 90 98 101 101 102 102 101 100 100 100 100 100 100 101 100 100 100 100 101 101 100 101 103 101 99 98 99 98 97 96 97 99 99 101 102 98 97 99 99 97 95 91 87 84 81 79
100 100 100 101 101 102 102 102 101 101 100 98 92 84 82 86 92 98 101 101 101 102 102 101 101 101 101 101 100 100 100 100 100 100 100 100 101 101 102 103 99 96 95 95 97 98 98 99 99 100 101 102 100 99 100 101 100 100 97 92 87 84 83
100 100 100 101 102 103 102 100 100 102 100 95 88 86 87 93 98 101 101 100 100 101 100 101 101 101 101 101 100 100 101 100 100 101 100 101 101 100 98 96 91 88 91 95 98 100 100 99 98 99 101 102 101 101 102 102 101 101 100 96 91 87 83
100 100 100 101 102 104 102 100 101 102 99 94 92 93 96 99 101 101 100 100 100 100 100 100 101 100 101 101 100 100 100 100 100 100 100 101 100 95 90 86 85 88 95 99 99 99 98 98 99 101 102 102 101 101 103 104 102 99 98 96 94 90 87
100 100 100 101 103 102 100 100 102 102 99 98 98 99 100 101 101 100 100 100 100 100 100 100 100 101 102 102 102 101 100 100 100 100 100 100 99 94 90 90 92 96 98 98 97 96 96 97 98 98 99 101 102 102 104 105 104 101 98 96 94 92 92
100 100 100 101 101 100 100 102 104 102 100 100 101 101 101 100 100 100 101 100 100 100 100 100 100 102 103 103 103 102 101 100 100 100 100 101 99 98 98 100 101 100 98 96 95 94 93 92 93 94 95 96 98 99 100 102 103 102 101 98 95 93 92
100 100 101 101 101 101 102 103 102 101 101 101 101 100 99 99 101 102 102 101 100 100 100 101 101 102 102 102 102 102 101 100 101 100 100 100 100 100 103 103 100 98 96 95 93 91 89 88 89 91 91 92 92 94 96 98 100 101 101 100 99 97 94
100 100 100 101 101 101 102 103 103 102 100 99 99 99 99 100 102 103 101 101 101 101 101 101 100 101 101 101 101 101 100 100 100 100 100 100 100 101 103 101 97 95 96 95 92 90 89 89 88 88 88 88 88 89 91 94 96 97 98 99 100 101 99

ECMWFFLT1_700_rhum_072.txt.gz
RH
40 47 54 60 62 66 72 72 68 62 51 43 54 78 94 99 100 98 95 98 98 99 100 90 75 68 66 62 55 48 44 41 37 35 35 36 34 27 22 22 21 18 16 18 21 26 34 40 36 29 24 22 23 25 28 31 36 44 56 67 79 91 97
48 64 63 64 68 70 73 78 81 81 73 60 57 75 94 100 101 99 97 98 98 97 99 94 80 72 71 69 63 55 49 45 41 37 34 34 33 27 24 24 24 20 17 17 19 21 28 38 40 34 28 23 22 24 26 28 32 38 48 58 68 79 91
31 64 79 74 73 77 79 81 86 91 90 81 72 78 93 99 100 101 98 98 99 96 98 97 84 75 76 76 71 62 54 49 45 41 37 34 32 28 26 28 27 23 20 18 18 18 23 33 40 38 31 26 23 22 23 25 29 34 42 51 59 68 81
9 36 70 84 82 84 88 88 92 96 96 96 92 89 96 99 99 101 100 98 100 97 97 99 89 78 78 82 79 70 62 54 48 44 40 36 34 31 30 31 29 26 23 21 20 19 20 27 37 40 34 28 25 23 21 22 25 30 36 44 52 59 69
6 8 38 76 89 89 95 97 98 101 100 100 101 99 99 100 99 101 100 99 102 100 98 100 95 82 79 83 84 78 70 61 53 48 44 39 36 34 34 35 32 29 26 24 23 21 20 23 33 40 37 30 26 23 21 19 21 25 31 38 46 52 59
10 3 15 57 88 93 99 103 100 101 102 101 101 100 100 100 99 101 101 100 102 101 99 101 98 88 80 81 84 82 78 70 60 53 49 44 40 36 36 36 34 31 28 27 25 23 21 22 29 38 39 32 27 25 22 20 18 20 26 32 39 46 52
12 7 7 42 85 98 98 102 100 99 101 101 101 100 100 100 100 101 101 101 102 101 100 100 100 94 83 78 80 82 82 78 69 60 54 49 45 40 37 37 35 32 30 29 28 26 23 22 25 36 41 34 28 26 24 21 18 17 20 26 33 40 46
14 8 3 26 71 97 100 100 101 100 99 101 101 100 100 100 100 101 101 101 101 100 100 100 101 97 88 80 78 80 84 85 78 68 59 54 51 46 41 39 37 34 33 33 31 28 26 23 24 33 41 37 29 27 26 23 19 17 17 20 26 33 40
12 9 5 13 43 80 101 102 99 100 100 100 101 100 100 100 100 101 102 101 100 100 100 100 100 99 94 86 81 80 83 88 86 77 66 59 55 51 46 43 39 37 36 36 34 31 29 26 24 30 38 38 31 28 27 24 20 17 16 17 22 27 34
10 8 7 10 23 53 90 104 99 99 101 100 100 100 100 100 100 100 103 102 99 100 101 101 100 101 98 92 85 82 83 88 89 85 75 65 59 55 51 47 42 39 39 38 36 34 32 27 25 28 34 37 33 28 27 26 20 17 15 16 19 23 28
8 7 6 14 20 35 74 103 101 98 101 100 100 100 99 100 100 101 103 101 99 100 102 102 102 101 101 96 89 83 82 85 89 89 84 73 63 59 55 51 45 42 42 41 38 37 35 30 28 28 31 35 35 29 28 27 22 17 16 15 17 22 26
6 6 4 13 19 29 66 100 102 98 101 100 99 101 99 99 100 101 102 100 99 101 102 102 102 101 101 98 91 85 83 85 90 93 91 81 70 64 60 55 50 47 45 43 40 39 36 33 32 31 30 34 35 31 29 29 24 19 16 16 16 21 25
5 6 5 9 16 33 69 99 102 99 101 100 99 100 99 99 100 101 102 101 101 103 102 101 101 101 100 99 94 88 86 89 93 95 94 87 77 69 65 60 56 53 49 46 43 40 38 38 38 36 33 33 35 35 32 30 27 21 17 17 17 19 24
5 5 6 9 20 46 80 100 100 99 101 100 99 100 99 100 99 99 101 103 103 103 102 101 101 101 100 98 94 92 91 94 96 97 96 91 83 74 69 65 60 57 55 52 47 42 43 46 45 41 37 33 34 38 36 31 29 24 19 18 17 18 23
5 5 6 11 32 64 92 101 100 100 100 99 100 100 100 100 98 94 95 99 102 103 102 101 100 101 101 97 92 92 96 100 100 99 97 94 88 80 74 68 64 62 62 61 55 50 53 58 53 44 39 34 35 41 40 34 32 28 22 20 18 18 22
6 6 7 19 51 85 100 100 100 100 100 99 100 100 100 101 98 92 91 94 98 102 102 101 100 101 102 98 91 90 98 103 103 101 99 96 92 85 78 72 68 68 70 69 64 59 61 65 59 48 40 35 39 48 46 38 36 32 25 22 20 18 20
7 11 21 44 76 99 103 100 100 100 99 100 100 99 101 101 98 94 92 94 97 101 102 101 100 101 102 98 92 90 97 103 103 102 101 99 96 91 83 75 72 73 75 74 69 65 67 70 63 51 43 40 47 54 50 43 42 37 28 24 21 19 19
12 23 48 77 95 101 100 100 100 99 100 100 99 100 101 100 99 96 94 95 99 102 103 101 100 101 102 98 91 91 98 103 102 101 101 101 99 95 86 78 75 77 79 78 73 69 73 74 67 56 50 48 53 56 52 50 49 41 32 27 23 21 20
26 43 73 95 101 99 100 100 99 99 100 100 99 101 100 100 100 99 97 98 100 101 102 102 101 101 102 97 91 93 101 103 101 100 101 101 101 96 89 82 79 81 82 81 77 75 76 75 69 62 56 54 56 57 54 55 55 48 41 35 28 23 22
53 72 92 100 100 100 100 100 99 100 100 100 100 100 100 100 100 100 100 101 101 101 100 101 101 102 103 99 93 95 101 102 101 100 100 102 100 94 89 86 85 87 89 87 84 82 81 81 78 72 65 61 62 60 56 57 59 57 53 47 38 31 27
81 94 100 100 99 100 100 99 100 100 99 100 100 99 100 101 99 99 100 102 103 102 99 100 102 102 103 102 96 96 101 102 100 100 101 101 99 95 94 95 96 97 98 95 90 86 85 87 85 78 70 66 65 62 58 58 62 65 65 61 52 44 36
97 100 100 100 100 100 100 100 100 100 100 100 100 99 100 100 98 97 100 103 103 102 99 101 102 102 103 103 98 97 101 102 100 100 100 101 101 100 100 102 101 101 102 99 94 89 87 88 87 80 73 70 69 69 67 65 68 74 75 72 67 60 50
101 100 100 100 100 99 100 100 100 100 100 100 100 100 100 100 99 98 101 103 102 101 100 101 103 102 103 104 101 99 101 100 100 100 100 101 103 102 101 101 100 100 100 100 98 94 91 92 92 89 86 83 83 84 81 74 75 79 79 77 77 74 65
100 100 100 100 100 100 100 100 99 100 100 99 100 100 99 100 100 100 101 101 100 100 101 102 103 102 102 102 101 100 100 100 100 100 100 101 103 102 100 100 101 100 100 101 101 97 94 95 97 97 98 98 98 98 93 83 78 80 82 80 79 78 74
100 100 100 100 100 100 100 100 100 100 100 100 100 100 100 100 100 100 100 100 100 101 103 103 103 102 101 100 100 100 100 100 100 100 100 101 101 100 100 100 100 100 100 100 100 97 94 96 97 98 100 102 102 102 97 87 79 80 85 86 81 75 72
100 100 100 100 100 100 100 100 100 100 100 100 100 100 100 100 100 100 100 100 100 102 104 103 102 101 100 100 100 100 100 100 100 100 100 100 100 100 100 100 100 100 100 100 99 97 96 96 95 96 97 98 97 95 94 90 86 85 89 91 88 80 75
100 100 100 100 100 100 100 100 100 100 100 100 100 100 100 100 100 100 100 100 101 102 103 101 100 100 100 100 100 100 100 100 100 100 100 100 100 100 100 100 100 99 99 100 101 100 98 96 94 94 94 92 90 89 89 91 92 92 91 90 89 87 86
100 100 100 100 100 100 100 100 100 99 100 100 100 100 100 100 100 100 100 101 101 101 101 101 99 100 100 100 100 100 100 100 100 100 100 100 100 100 100 100 100 99 98 101 103 102 100 96 93 92 91 89 88 89 90 90 92 95 96 92 86 85 88
100 100 100 100 100 100 100 100 100 100 100 100 100 100 100 100 100 100 101 103 102 101 101 100 99 100 100 99 99 99 100 100 100 100 100 100 100 100 100 100 101 100 98 100 103 102 99 95 92 93 94 95 94 93 93 93 93 95 97 96 90 83 82
100 100 100 100 100 100 100 100 100 100 100 100 100 100 100 99 100 101 103 103 102 101 100 100 100 100 100 99 99 99 99 100 100 100 100 100 100 100 99 100 101 99 96 98 101 102 99 95 93 93 95 98 100 99 97 97 98 97 97 96 94 88 82
100 100 100 100 100 100 100 100 100 100 100 100 100 100 100 100 101 102 102 101 100 100 100 100 100 100 100 101 101 100 99 100 100 100 100 100 99 99 100 100 100 97 95 96 99 100 99 97 95 94 96 99 102 103 100 99 101 102 100 96 94 93 88
100 100 100 100 100 100 100 100 100 100 100 100 100 100 100 100 100 101 101 100 100 100 100 100 100 100 100 101 102 101 100 100 100 100 100 99 99 99 100 101 100 97 95 95 97 99 100 99 98 98 99 100 103 104 101 99 99 102 103 101 97 94 93
100 100 100 100 100 100 100 100 100 100 100 100 100 100 100 100 100 100 100 99 100 100 100 100 100 100 100 100 101 101 101 100 100 100 100 100 99 100 100 101 100 98 95 94 94 97 100 102 102 101 100 100 101 102 101 100 99 98 100 102 100 96 95
100 100 100 100 100 100 100 100 100 100 100 100 100 100 100 100 100 100 100 100 100 100 100 100 100 100 100 100 101 101 100 100 100 100 100 101 100 99 100 100 101 101 99 96 96 97 99 101 102 101 101 100 101 101 102 103 102 98 95 96 97 96 96
100 100 100 100 100 100 100 100 100 100 100 100 100 100 100 100 100 100 100 100 99 99 100 100 100 100 100 100 100 100 100 100 100 100 100 100 100 100 100 101 102 102 101 100 101 100 99 99 100 102 102 101 100 101 102 103 104 102 98 95 93 93 94
99 100 100 100 100 100 100 100 100 100 100 100 100 100 100 100 100 100 101 101 100 99 100 100 101 101 101 101 101 101 101 100 100 100 100 100 100 100 100 101 102 101 102 103 103 102 99 100 102 104 103 100 98 98 99 101 102 103 103 101 97 94 93

ECMWFFLT1_700_rhum_075.txt.gz
RH
8 27 62 81 80 74 64 49 35 27 27 22 21 31 41 63 87 83 74 80 82 80 77 68 68 81 96 101 100 101 101 100 98 87 73 65 60 54 50 45 40 36 32 32 35 32 26 22 21 20 20 20 20 19 15 12 12 11 13 16 19 22 26
8 33 72 84 80 80 68 52 44 36 29 23 21 25 26 44 83 95 85 86 87 87 91 86 79 84 94 101 101 100 101 100 100 94 82 72 66 60 55 50 45 41 36 34 36 34 26 22 22 21 19 19 19 20 18 15 13 12 14 17 20 22 25
9 23 46 53 53 59 53 46 44 32 23 21 19 28 30 37 75 103 95 92 96 95 99 98 90 90 97 101 101 100 100 100 100 98 89 78 72 66 60 56 51 46 40 35 35 34 27 24 25 23 21 19 18 19 19 17 15 14 14 18 20 22 24
8 14 29 41 43 44 41 39 35 23 19 18 14 24 36 41 69 102 102 96 100 100 100 102 97 96 99 101 101 101 100 100 101 100 94 86 78 72 67 63 58 52 44 38 35 32 28 27 28 26 24 20 18 19 20 19 17 15 15 18 20 21 23
6 6 17 32 38 37 33 28 26 24 21 17 12 19 36 48 67 95 105 99 100 101 100 101 100 99 100 101 100 101 101 100 101 101 98 92 86 79 74 70 64 58 50 42 37 32 29 29 30 29 27 23 19 19 20 20 19 16 15 17 20 21 21
7 6 9 17 23 25 24 19 19 22 19 16 13 12 26 47 65 86 103 102 98 100 100 100 101 100 99 101 100 100 101 100 100 102 100 96 92 87 81 75 70 63 55 47 40 34 30 30 31 31 29 26 22 19 20 22 21 18 15 16 20 21 20
6 7 6 8 10 12 14 14 14 17 16 14 12 8 12 33 57 79 97 102 98 99 101 100 101 100 99 100 100 100 101 100 100 101 101 99 98 94 88 80 74 68 60 52 45 37 32 31 33 32 31 29 25 20 20 22 22 20 18 17 19 21 20
6 7 6 6 7 7 8 10 10 12 13 9 8 7 5 21 53 77 92 101 100 99 100 100 100 100 100 100 100 101 101 100 100 101 102 102 101 98 93 85 78 72 64 57 50 41 35 34 34 34 33 31 28 24 21 22 22 21 20 19 20 21 21
6 7 7 6 7 7 7 8 7 7 9 7 6 7 4 14 46 73 89 100 101 99 100 100 100 100 100 99 100 101 100 100 100 100 102 103 102 101 98 91 83 76 68 61 54 45 39 37 35 36 36 33 30 26 22 22 22 22 21 20 21 22 21
7 7 7 7 7 8 7 7 8 6 7 7 5 7 6 9 32 67 92 102 101 99 100 100 100 100 99 100 101 100 100 100 100 100 101 103 103 102 101 97 90 81 71 65 57 48 44 40 37 38 38 35 32 28 24 22 23 24 22 20 21 22 20
7 7 8 8 7 7 7 7 7 7 7 6 6 11 11 8 26 65 94 100 98 99 100 100 100 100 99 100 100 100 100 100 100 100 100 103 104 102 102 101 96 88 78 68 59 51 46 42 39 40 41 37 33 30 25 23 24 26 24 21 21 22 20
9 8 8 8 7 7 7 6 7 7 7 6 8 11 16 25 46 74 90 92 94 98 100 100 100 100 100 101 100 100 101 100 100 100 100 102 104 102 103 102 99 94 84 73 63 54 48 45 42 43 44 40 35 31 27 25 25 27 25 22 23 23 20
10 9 9 9 8 7 7 6 7 7 6 7 9 14 31 59 79 87 89 90 93 99 101 100 100 100 100 100 100 101 101 100 100 100 100 102 103 101 101 102 102 99 90 80 70 59 52 50 47 45 47 45 38 32 28 27 26 26 26 26 26 25 21
9 9 10 9 9 9 9 8 7 8 10 14 20 33 62 90 98 93 92 93 96 101 102 100 100 100 100 100 100 101 101 100 100 100 100 102 102 100 100 102 103 102 96 86 75 63 57 54 51 50 54 51 40 32 29 29 27 27 29 30 28 25 22
10 10 11 13 17 15 11 12 15 16 20 28 40 62 89 102 100 96 97 97 99 101 101 100 100 100 100 100 100 101 101 100 100 100 100 101 102 101 101 102 103 103 99 91 78 68 62 58 57 59 62 57 43 33 31 29 28 29 32 33 29 25 23
13 15 17 23 30 27 20 22 27 29 38 56 73 89 101 101 98 99 99 99 100 101 100 100 100 100 100 100 100 100 100 100 100 100 100 102 102 102 102 103 103 102 102 95 83 73 68 65 65 69 71 64 48 35 31 29 29 33 35 34 31 28 24
23 29 35 41 47 48 40 36 41 53 70 88 98 100 100 99 100 100 100 100 101 100 101 101 99 100 101 100 100 100 99 100 100 100 100 101 102 101 101 102 102 103 102 97 87 79 74 72 74 79 78 65 48 36 30 30 33 37 36 35 35 32 27
45 53 62 66 67 68 61 55 66 86 97 101 101 100 100 100 100 100 100 100 100 101 101 100 99 100 101 101 100 100 100 100 100 100 101 100 100 101 100 100 102 103 101 98 90 83 79 77 80 84 79 62 47 38 32 33 38 38 35 39 41 37 31
73 80 85 86 84 84 82 81 90 102 102 100 100 100 100 100 99 100 100 100 100 101 100 98 100 102 102 101 100 100 100 100 100 101 100 100 101 100 98 99 102 103 101 97 92 86 81 79 81 83 74 60 50 42 35 37 41 38 38 47 48 42 36
95 97 96 96 94 94 96 97 99 101 100 100 101 100 100 100 100 100 100 99 100 100 96 96 101 103 102 100 100 100 100 100 100 100 101 100 99 98 97 100 103 103 102 99 95 90 85 83 84 85 77 65 57 49 41 40 42 42 48 57 55 47 41
102 101 99 99 98 98 100 100 100 100 100 100 100 100 100 100 100 100 100 100 100 98 95 97 102 103 101 100 100 100 100 100 100 100 100 99 98 98 100 102 102 101 102 101 98 95 91 89 91 91 84 73 64 55 46 42 47 55 62 65 61 54 47
102 101 100 100 100 100 100 100 100 100 100 100 100 100 100 100 100 100 100 100 98 94 95 99 101 101 101 100 100 100 100 100 100 100 99 99 100 101 101 101 100 100 101 102 101 98 94 92 92 90 83 73 65 59 51 48 59 73 77 73 68 63 53
100 100 100 100 100 100 100 100 100 100 100 100 100 100 100 100 100 100 100 98 94 92 96 101 102 101 101 100 100 100 100 100 100 100 98 99 101 102 100 100 100 100 100 103 103 99 94 92 91 87 81 73 66 63 59 60 74 88 86 79 77 72 61
100 100 100 100 100 100 100 100 100 100 100 100 100 100 100 100 100 99 97 94 94 96 99 101 101 102 101 100 100 101 100 100 100 99 99 101 102 100 100 100 100 100 101 103 103 100 96 93 90 86 81 77 73 74 76 81 88 92 87 84 83 79 69
101 101 100 100 100 100 100 100 100 100 100 100 100 100 100 100 99 95 91 90 94 99 101 100 100 100 100 100 101 100 99 100 100 98 98 101 102 100 99 100 100 100 101 102 102 101 97 92 91 89 89 90 92 94 96 96 93 89 86 85 84 81 76
103 100 100 100 100 100 100 100 100 100 100 100 100 100 100 100 98 96 93 92 95 100 102 100 100 100 100 100 100 100 99 100 100 99 99 100 101 100 100 100 100 101 101 101 101 100 97 96 97 98 99 101 101 98 95 93 91 89 88 89 86 84 83
102 100 100 100 100 100 100 100 100 100 100 100 100 100 100 101 101 100 99 97 98 101 102 100 100 100 100 100 100 100 99 99 99 100 101 101 100 100 100 100 100 100 99 98 99 100 100 101 101 102 103 101 97 92 90 91 92 90 90 93 92 86 83
99 99 100 100 99 100 100 100 100 100 100 100 100 100 100 101 101 101 100 99 100 101 101 100 100 100 100 100 100 100 100 100 99 99 101 101 100 100 100 100 101 101 100 100 101 102 102 101 100 101 102 99 95 93 93 94 94 92 93 96 96 89 82
99 100 100 100 100 100 100 100 100 100 100 100 100 100 100 100 100 100 100 100 100 100 101 100 100 100 100 100 100 100 99 100 100 100 100 100 100 100 100 100 99 100 101 102 103 103 102 100 100 101 101 98 95 95 96 96 95 94 95 96 97 95 87
100 100 100 100 100 100 100 100 100 100 100 100 100 100 100 100 100 100 100 100 100 100 100 100 100 100 100 100 100 99 96 96 99 100 100 100 100 100 100 99 97 97 99 100 102 102 101 101 101 102 101 98 97 97 98 97 96 94 93 93 97 99 94
99 100 99 100 100 100 100 100 100 100 100 100 100 100 100 100 100 100 100 100 100 100 100 100 100 100 100 100 101 100 97 97 99 100 100 100 100 100 100 99 98 98 99 100 100 100 100 102 103 103 101 98 99 100 100 99 98 95 93 92 96 100 99
100 100 99 99 100 100 100 100 100 100 100 100 100 100 100 100 100 100 100 100 100 100 100 100 100 100 100 100 102 102 100 100 100 100 100 100 100 100 100 100 100 100 100 101 101 101 101 101 102 102 101 100 101 101 101 102 102 99 96 94 95 98 100
100 100 100 100 100 100 100 100 100 100 100 100 100 100 100 100 100 100 100 100 100 100 100 100 100 100 100 100 102 103 102 100 100 100 100 100 100 100 100 100 100 100 100 101 102 103 103 102 100 100 101 102 103 102 101 102 104 103 101 99 97 95 96
100 100 100 100 100 100 100 100 100 100 100 100 100 100 99 99 99 99 100 100 100 100 100 100 100 100 100 101 102 103 102 100 100 100 100 100 100 100 100 100 100 100 100 100 101 102 104 104 102 101 100 101 102 102 102 102 102 102 102 102 100 98 97
100 100 100 100 100 100 100 99 99 100 100 100 100 100 100 100 100 100 100 100 100 100 100 100 100 100 100 101 101 102 101 100 100 100 100 100 100 100 100 100 100 100 100 100 99 100 101 101 101 101 101 101 101 101 101 101 101 102 102 102 102 103 101
100 100 100 100 100 100 100 100 100 100 101 100 100 100 100 100 100 100 100 101 101 100 100 100 100 100 100 100 100 101 101 100 100 100 100 100 100 100 100 100 100 100 101 99 97 95 95 95 97 99 101 102 102 101 100 101 102 102 102 100 101 102 102

ECMWFFLT1_700_rhum_078.txt.gz
RH
6 6 6 5 6 6 6 6 7 7 7 8 8 10 13 14 17 22 21 17 14 11 11 13 17 23 18 13 36 74 91 91 92 89 86 92 98 100 101 100 102 96 83 82 82 63 47 45 44 41 41 39 36 35 30 24 20 18 16 13 11 10 9
6 6 6 5 5 6 6 6 6 7 7 7 7 8 10 13 16 19 19 18 15 12 13 14 16 24 22 13 30 70 95 97 99 98 94 96 99 100 101 100 101 98 90 86 82 70 55 50 48 45 46 45 41 38 33 25 21 19 16 15 14 12 11
6 6 5 5 6 5 6 6 6 6 7 7 7 7 8 10 11 14 15 16 15 14 16 16 15 25 30 20 32 72 97 100 102 102 99 98 100 101 101 100 101 100 95 91 86 76 62 54 53 51 50 50 47 43 36 26 21 19 17 15 15 13 12
6 6 6 6 6 6 6 6 6 7 6 7 7 7 7 8 8 11 16 20 20 19 21 18 15 27 40 33 37 73 99 101 103 103 101 101 100 100 101 100 100 101 98 95 91 83 69 59 57 57 56 54 51 47 38 27 21 19 17 16 15 15 14
6 6 6 7 6 7 7 6 7 7 6 7 7 7 7 8 7 8 13 17 20 21 23 20 13 22 45 43 37 67 99 102 102 103 101 102 102 100 101 101 100 100 100 99 96 88 77 66 60 60 60 58 55 51 41 30 24 21 18 16 15 16 16
7 7 7 7 7 7 7 7 7 7 7 7 7 7 7 7 8 7 9 10 12 17 18 15 9 13 35 41 30 56 97 104 100 103 101 101 103 100 100 101 100 100 100 100 98 93 84 72 63 62 63 62 59 55 45 33 28 24 19 17 17 17 18
7 7 8 7 8 8 7 8 8 7 8 7 7 9 7 8 8 7 8 8 8 12 10 9 9 8 22 33 23 46 94 105 99 104 102 100 102 101 100 101 100 100 100 100 100 96 89 77 68 64 65 65 63 57 48 38 31 27 22 18 17 17 19
8 8 9 8 8 9 8 8 9 8 9 8 8 9 8 9 9 7 10 9 7 10 8 7 10 6 15 24 16 40 91 105 99 103 101 99 102 101 100 101 100 100 100 100 101 98 92 85 73 66 66 68 64 59 53 44 34 28 25 21 18 18 19
9 9 9 9 9 10 9 9 9 9 10 10 9 10 9 9 9 7 9 9 7 10 8 7 9 6 11 14 10 42 94 105 99 102 100 99 102 100 100 101 100 101 100 99 101 99 95 90 79 68 67 69 65 62 59 48 35 29 26 23 21 20 19
11 10 10 10 10 10 9 10 10 9 10 10 10 10 10 9 9 9 8 9 9 9 8 8 8 7 9 7 14 57 100 104 98 102 100 99 101 100 100 101 99 100 100 99 100 100 98 94 84 72 68 70 69 67 62 50 37 32 28 24 22 21 22
12 11 11 11 10 10 10 10 10 10 10 10 10 11 11 10 10 9 8 9 8 7 8 8 8 11 10 7 30 76 104 101 99 102 100 99 101 100 100 101 100 100 101 99 100 101 99 96 88 77 71 72 72 70 64 51 39 34 30 26 23 22 23
13 12 12 13 12 12 11 10 10 10 9 10 11 12 15 16 15 15 15 14 14 13 11 9 11 16 14 20 55 93 103 99 100 101 100 100 100 100 100 100 100 100 100 100 100 100 99 97 93 82 73 73 75 74 68 53 40 36 33 29 24 22 25
15 15 14 15 14 13 13 11 11 10 10 13 14 18 30 37 38 36 31 27 28 27 22 18 17 17 22 45 82 102 100 100 101 100 100 100 100 100 100 100 101 100 100 101 101 100 99 100 98 87 77 78 80 78 70 54 42 38 35 31 26 25 27
17 16 16 17 17 17 16 15 15 14 19 25 28 39 62 73 72 68 61 55 56 51 41 33 24 23 43 75 98 102 99 101 101 99 100 100 100 100 100 100 100 100 100 101 101 101 100 102 101 92 84 84 84 80 70 55 44 40 37 32 29 28 28
20 20 20 21 26 28 25 26 29 31 38 49 59 72 90 94 88 81 72 70 74 70 59 47 37 45 74 96 101 100 100 100 100 100 100 100 100 100 100 100 100 99 100 100 99 100 101 103 102 97 91 88 87 83 72 57 47 42 37 34 33 31 29
28 31 32 34 42 49 46 45 54 60 67 79 89 95 101 99 94 87 78 75 79 77 68 59 58 73 94 102 99 100 101 100 100 100 100 100 101 100 100 100 99 100 101 100 99 98 99 101 102 100 95 90 90 87 73 58 50 43 39 38 37 33 29
39 46 52 56 64 72 71 72 80 88 92 99 103 101 101 101 100 97 94 92 92 88 82 76 80 92 100 100 100 101 100 100 101 100 100 101 100 100 100 98 99 101 101 100 100 99 99 101 102 102 98 93 94 91 75 60 51 44 43 44 40 35 30
54 59 69 77 82 89 92 92 96 101 102 102 102 101 100 100 100 100 100 99 98 97 96 94 96 100 100 100 101 100 99 100 101 100 100 101 100 100 100 99 101 102 101 100 100 100 100 101 101 103 101 97 99 97 82 64 54 49 49 47 42 37 33
68 71 79 88 94 100 103 102 101 102 103 101 100 100 100 100 100 100 100 100 100 100 100 100 100 100 100 100 101 100 100 100 100 100 99 100 101 101 99 100 102 102 101 100 100 100 99 98 99 103 102 99 102 101 87 67 55 51 50 48 46 42 38
78 80 88 96 102 103 103 103 102 101 101 101 100 100 100 100 100 100 100 100 100 100 100 100 100 100 100 101 100 100 100 100 101 101 99 99 101 102 101 102 102 102 101 100 100 101 99 97 99 102 102 101 103 101 86 66 53 51 51 51 50 49 45
85 90 96 101 103 102 101 101 101 101 101 100 100 100 100 100 100 100 100 100 100 100 100 100 100 100 100 101 101 100 101 100 100 100 99 99 101 101 103 103 102 101 101 100 100 101 100 99 101 102 101 101 102 98 82 63 54 55 56 56 60 61 55
90 98 101 101 100 100 101 101 100 100 100 100 100 100 100 100 100 100 100 100 99 100 100 99 99 100 101 102 102 102 101 101 101 100 98 99 101 101 102 102 101 100 101 101 101 101 100 100 102 103 101 100 100 94 80 66 62 62 62 67 75 76 65
96 102 101 100 100 100 100 100 100 100 100 100 100 100 100 100 100 100 100 101 100 100 100 99 98 100 101 102 103 103 102 100 100 100 99 99 101 101 101 102 101 101 101 101 101 100 100 100 101 102 103 101 98 90 79 70 66 66 72 83 89 83 69
100 103 100 100 101 100 100 100 100 100 100 100 100 100 100 100 100 100 100 99 98 97 97 97 98 100 102 104 103 103 102 100 100 101 100 99 100 100 100 101 101 101 101 101 100 100 101 100 101 102 102 98 92 85 79 74 72 76 88 99 97 86 72
102 102 99 99 100 99 100 101 100 100 100 100 100 100 100 100 100 100 97 93 90 89 91 96 99 102 103 104 103 102 101 101 101 100 100 100 101 100 100 100 101 100 101 101 101 101 101 100 98 98 98 96 91 87 84 84 86 93 101 104 98 86 74
98 97 94 93 96 99 99 100 100 100 100 100 100 100 100 100 100 100 97 93 90 90 93 97 100 103 104 103 101 101 100 100 99 98 98 99 101 100 100 100 101 101 101 101 101 100 99 97 97 98 99 98 95 93 93 95 99 102 103 102 97 89 81
89 91 91 89 93 99 100 100 101 100 100 100 100 100 100 100 100 101 101 99 97 97 99 100 101 103 103 101 101 101 100 99 96 95 97 99 100 101 101 99 99 101 101 100 99 98 97 98 100 101 102 100 99 99 100 102 103 102 102 103 100 94 93
90 94 97 95 99 101 98 99 101 100 100 100 100 100 100 100 100 101 101 102 101 101 102 102 102 102 102 101 101 100 99 99 98 97 99 101 101 102 99 95 97 100 100 99 99 99 100 102 103 102 102 102 101 101 103 104 105 103 102 103 101 98 100
97 100 100 99 101 102 98 99 101 100 100 100 100 100 100 100 100 100 100 101 102 101 101 101 100 101 101 101 100 99 100 102 102 102 102 102 102 103 97 93 95 99 98 97 101 102 102 102 102 101 101 101 101 101 103 105 105 104 103 103 102 102 102
99 100 100 99 100 101 100 100 100 100 100 100 100 100 100 100 100 100 100 100 100 100 100 100 100 100 100 100 101 102 102 103 104 103 102 101 102 102 97 93 93 95 96 99 102 103 101 100 101 101 101 100 101 102 104 103 103 103 103 103 103 104 103
100 99 101 101 100 100 100 100 100 100 100 100 100 100 100 100 100 100 100 101 100 100 100 100 100 100 99 99 101 102 102 104 104 103 101 101 100 98 97 93 89 91 97 101 101 101 100 100 100 100 100 100 101 102 103 103 102 103 103 103 103 104 104
100 100 101 100 100 100 100 100 100 100 100 100 100 100 100 100 100 100 100 100 100 101 102 101 100 99 99 99 100 101 100 102 103 101 101 102 99 96 97 96 91 92 99 101 100 100 101 100 100 100 100 100 100 100 102 102 102 102 103 103 103 105 105
100 100 100 100 100 100 100 100 101 100 100 101 101 100 100 101 100 100 100 100 100 101 101 101 101 100 100 100 100 100 100 101 101 100 101 101 100 98 100 100 98 98 101 100 100 100 100 100 100 100 100 100 100 100 100 101 102 103 104 104 104 104 105
100 99 100 100 99 100 100 100 101 101 100 100 100 100 100 100 100 100 100 100 100 100 100 101 100 101 101 100 100 100 101 101 101 100 100 101 101 101 102 102 102 101 101 100 101 101 100 100 100 100 100 100 100 100 100 101 101 102 103 104 104 104 103
102 100 100 99 98 99 100 100 100 100 100 100 100 100 100 100 100 100 100 100 100 100 100 100 100 100 100 100 100 100 101 100 100 100 100 100 101 101 101 101 101 101 101 101 101 100 100 101 100 100 101 101 100 100 100 100 100 101 101 102 103 103 102
104 102 100 97 96 99 100 100 100 100 100 100 100 100 100 101 101 100 100 100 100 100 100 100 100 100 100 100 100 100 100 100 100 100 100 100 100 100 100 100 100 101 101 100 100 100 100 100 100 100 101 101 101 101 100 100 100 101 100 101 102 102 102

ECMWFFLT1_700_rhum_081.txt.gz
RH
11 11 10 10 10 9 9 9 8 7 7 6 6 5 5 5 5 5 5 4 4 4 5 5 4 5 5 7 12 14 15 11 9 11 12 18 29 28 25 23 23 26 17 13 33 44 38 42 43 44 69 96 100 87 73 66 59 49 41 38 31 24 20
11 11 10 9 9 9 8 7 7 7 6 6 6 5 5 6 5 6 5 5 5 5 5 6 5 6 5 6 10 14 18 16 13 14 14 20 31 31 27 25 27 38 39 28 38 53 51 51 49 46 64 93 103 90 72 63 61 52 42 38 33 26 24
10 10 9 8 8 7 7 7 6 6 6 6 6 5 6 6 6 6 6 6 6 6 6 7 6 6 6 6 7 9 13 16 17 19 17 21 34 39 33 28 35 59 67 54 54 64 65 62 56 51 65 90 103 96 78 65 62 57 47 40 35 30 27
9 8 8 7 7 6 6 6 6 6 6 6 7 6 6 6 7 7 7 7 7 6 7 7 6 7 6 6 7 6 8 10 15 20 21 22 34 46 43 31 40 75 91 82 76 74 74 77 67 57 68 88 101 101 88 73 64 59 52 46 40 34 29
8 8 7 6 7 7 6 7 7 7 7 7 8 8 7 7 8 7 7 7 7 7 7 7 7 8 7 7 8 6 6 7 10 16 20 20 25 43 55 42 39 74 101 96 88 84 83 88 79 66 72 88 98 101 95 81 69 61 55 49 44 39 33
8 8 8 7 7 8 7 8 8 8 8 8 9 9 9 9 8 8 8 8 8 8 8 8 8 8 8 8 7 7 7 6 8 13 18 19 18 31 55 53 37 62 101 103 92 91 92 93 88 78 78 89 97 101 98 88 76 67 58 52 47 43 38
9 9 9 9 9 9 9 9 9 9 10 10 10 10 10 10 9 9 9 8 9 9 8 9 9 9 9 9 9 8 8 7 8 11 12 14 16 20 42 54 36 43 87 106 96 95 95 93 94 88 84 91 98 102 100 91 81 73 64 57 51 46 42
11 11 11 11 12 11 12 11 11 11 11 11 11 11 11 11 10 10 10 9 9 9 9 9 9 10 9 10 10 9 9 9 8 9 9 9 14 13 23 47 41 32 68 103 100 96 97 95 96 93 89 94 99 100 99 93 86 79 71 64 56 48 44
13 13 13 13 14 13 13 13 13 13 13 12 12 12 12 11 10 10 10 10 9 9 10 10 9 10 10 10 11 9 10 11 9 11 12 7 10 10 13 38 42 26 54 98 102 96 100 98 96 94 91 93 95 96 99 97 92 85 77 70 60 51 45
15 15 15 14 15 14 15 15 14 14 14 14 14 14 13 13 12 12 11 10 10 9 9 10 9 10 10 9 11 11 10 14 18 19 14 9 14 12 7 26 34 21 47 96 103 96 101 99 93 93 93 92 93 97 102 101 96 90 85 76 62 53 47
16 16 16 17 16 16 16 15 15 16 16 16 18 20 22 20 16 15 14 12 12 10 9 10 9 10 12 10 11 12 11 18 29 29 25 29 38 30 17 19 16 13 50 97 103 97 101 98 92 94 96 96 95 97 102 103 99 95 90 80 64 54 48
17 17 18 19 18 17 17 16 18 22 22 22 25 31 39 40 33 29 29 27 25 22 16 13 11 13 18 19 19 22 20 19 25 29 33 42 48 46 46 41 22 25 69 102 101 99 101 97 95 98 99 99 96 97 101 103 101 98 93 83 68 55 47
20 20 22 22 21 20 20 21 26 31 32 34 39 46 58 67 67 64 63 58 53 47 40 36 36 36 36 39 43 47 44 34 26 26 34 44 44 41 56 71 68 72 95 103 98 100 101 97 100 101 99 99 98 99 102 103 102 101 96 87 71 55 47
24 24 24 24 26 28 28 32 39 43 46 52 58 66 77 89 94 93 92 87 81 78 75 74 77 77 72 70 70 67 63 54 41 38 43 50 51 45 55 83 99 99 101 101 99 101 100 99 102 102 101 102 100 100 102 101 102 103 100 90 73 56 48
27 27 28 32 40 43 41 44 52 56 62 71 78 86 95 101 102 100 100 100 97 97 97 95 95 95 91 90 88 81 78 70 59 58 61 60 67 73 78 93 103 100 99 101 100 100 100 100 101 101 103 103 100 101 102 101 102 104 102 91 72 55 49
31 34 39 45 52 56 52 54 66 74 80 88 94 100 102 101 101 100 100 101 100 100 101 100 100 99 97 98 95 89 90 89 80 78 78 75 84 96 98 99 101 100 100 101 99 100 101 100 100 100 101 102 101 102 101 101 102 102 101 90 70 55 53
37 45 54 58 60 64 64 68 81 91 93 95 98 103 103 101 100 100 100 100 100 100 100 100 100 100 100 101 98 90 92 98 98 95 91 89 95 101 100 100 100 100 100 100 100 100 100 100 101 101 100 101 102 102 101 101 101 100 100 90 70 59 59
49 57 64 65 66 76 83 85 92 99 99 97 96 100 103 101 99 100 100 100 100 100 100 100 100 100 100 100 99 94 89 92 98 102 101 99 101 101 100 100 100 99 100 101 100 100 100 100 102 102 102 101 101 100 101 101 100 100 101 89 71 66 64
64 67 67 68 75 89 98 97 98 100 101 99 96 97 101 102 100 100 99 100 100 100 100 100 100 100 100 100 99 95 88 88 97 103 102 100 101 102 101 100 100 100 101 100 100 100 100 99 100 101 101 101 101 100 101 101 100 102 100 87 74 73 66
75 73 69 74 85 97 101 101 101 100 100 101 98 98 102 104 102 100 99 99 100 100 100 101 99 97 99 99 101 99 93 95 101 102 100 100 101 101 100 100 100 100 100 100 100 100 100 99 99 98 97 99 101 100 100 101 100 101 98 86 78 76 67
79 75 74 80 92 100 101 100 101 101 100 101 100 100 102 102 102 102 100 98 98 98 99 98 96 96 99 99 100 101 100 100 101 100 100 101 100 100 100 100 100 100 100 100 100 100 101 102 102 99 98 100 101 100 100 101 100 101 97 88 80 76 68
77 77 81 85 91 98 101 100 101 101 101 100 100 101 101 100 101 101 100 99 99 99 98 96 94 97 101 100 99 100 100 100 100 100 101 101 100 100 101 100 100 101 100 101 101 100 101 101 101 101 100 101 102 101 100 100 100 101 97 89 82 76 72
75 79 84 85 89 95 97 97 99 100 100 100 100 100 100 100 100 100 100 101 99 96 95 94 95 99 102 101 100 100 100 100 100 100 100 100 100 100 101 101 102 102 101 101 101 101 101 100 99 100 101 102 102 101 100 100 101 100 96 90 85 81 80
75 83 84 83 87 89 87 90 97 101 101 100 100 100 100 100 100 100 101 99 94 91 92 92 94 99 103 102 101 100 100 100 100 100 101 100 100 100 101 103 103 101 101 101 101 101 101 100 99 101 102 101 101 101 101 100 100 98 95 93 91 89 91
79 86 82 79 83 83 82 89 98 101 101 100 100 99 100 100 100 100 100 98 95 96 97 97 99 101 102 102 101 100 100 100 100 100 100 100 100 100 101 102 102 101 101 101 101 101 101 100 100 102 102 101 100 101 101 101 99 96 95 97 96 97 99
84 84 75 73 79 83 88 97 100 100 100 100 100 99 99 100 100 100 100 99 100 102 102 101 103 103 101 100 101 101 100 100 100 101 100 100 100 100 100 101 100 100 101 101 100 100 101 100 100 101 102 102 101 102 102 101 98 95 96 99 99 100 101
86 80 70 71 78 85 93 101 100 98 100 100 100 101 100 100 100 101 101 100 100 101 102 102 103 102 100 100 100 100 100 100 101 100 98 98 100 100 100 100 100 100 101 100 100 100 101 101 100 100 101 101 101 102 101 101 99 98 100 101 101 102 98
91 83 73 76 87 93 97 100 100 99 99 100 101 101 101 100 100 100 100 101 100 100 100 101 101 100 100 100 100 100 100 100 100 99 97 98 100 101 100 99 98 99 101 100 99 101 102 101 100 100 99 99 100 101 101 101 102 101 102 102 102 101 94
100 95 86 85 96 103 101 99 99 100 100 100 100 100 100 101 100 100 100 100 101 100 100 100 100 100 100 100 100 101 100 98 96 95 96 99 101 101 100 98 95 97 101 101 100 100 101 101 100 100 100 101 101 101 101 102 102 101 101 101 101 99 95
102 102 96 91 95 101 102 100 100 100 100 100 100 100 100 100 100 100 101 100 100 100 100 100 100 100 100 100 100 101 102 101 100 98 98 100 101 102 103 102 99 99 101 102 100 100 101 101 101 101 101 102 101 101 101 101 100 101 102 101 99 99 98
101 102 101 97 95 98 100 100 100 100 100 100 100 100 100 100 100 100 100 100 100 100 100 100 100 100 100 100 100 100 101 102 103 103 101 101 102 103 104 103 101 100 102 102 101 100 100 100 100 100 100 101 101 100 100 101 101 101 101 101 99 99 100
99 99 101 101 99 99 100 100 100 100 100 100 100 100 100 100 100 100 100 100 100 100 100 100 100 100 100 101 101 101 100 100 101 102 101 101 102 102 102 101 101 102 103 102 101 100 100 100 100 100 100 100 101 101 101 101 101 101 101 101 101 101 101
101 97 97 100 101 100 101 101 100 100 100 100 100 101 101 100 100 99 100 100 100 100 100 100 100 100 100 100 101 100 100 100 100 101 100 100 100 100 100 100 102 102 102 101 100 100 100 100 100 100 100 100 100 101 101 101 101 101 100 100 101 101 101
104 100 96 98 101 102 101 101 100 100 100 100 100 100 102 102 101 100 100 100 100 100 100 100 100 100 100 100 100 100 100 100 100 100 100 100 100 100 100 101 102 101 100 100 100 100 100 100 100 100 100 101 101 101 100 100 100 100 100 100 101 100 100
100 102 98 96 99 102 100 97 100 101 99 98 100 101 100 101 101 100 100 101 100 100 100 100 101 100 100 100 100 100 100 100 100 100 100 100 100 100 100 100 100 100 100 100 100 100 100 100 100 100 100 100 101 101 101 101 101 101 100 100 101 100 100
98 102 100 97 98 101 100 97 100 102 96 92 97 101 100 100 101 100 100 100 100 100 100 100 100 100 100 100 100 100 100 100 100 100 100 100 100 100 100 100 100 100 100 100 100 100 100 100 100 100 100 100 101 101 101 101 101 101 100 100 100 100 100

ECMWFFLT1_700_rhum_084.txt.gz
RH
18 17 16 15 15 13 13 12 10 10 9 8 8 7 7 7 6 6 6 5 5 5 5 6 6 5 5 5 5 5 5 5 5 5 5 5 5 5 5 4 5 4 3 3 3 3 3 3 4 3 3 4 5 5 6 7 9 12 15 17 16 16 15
16 15 14 13 12 10 10 9 8 7 7 6 6 5 5 5 4 5 5 4 4 5 5 5 5 5 5 5 6 6 5 5 5 5 5 5 5 6 5 5 6 6 4 3 3 3 3 4 5 4 4 4 5 6 7 6 8 12 18 23 25 25 22
13 12 11 10 9 8 7 7 6 6 5 5 5 5 5 4 4 4 4 4 4 4 5 5 4 5 5 5 6 6 6 6 6 6 6 5 6 6 6 6 6 7 7 4 4 4 3 4 6 6 5 6 6 7 7 7 6 10 19 28 32 34 32
11 10 9 8 7 7 6 6 6 5 6 6 5 6 5 5 6 5 5 5 5 5 5 5 5 5 5 6 7 6 7 7 6 7 7 6 7 7 7 7 6 8 8 6 5 5 4 4 6 7 6 7 8 6 7 8 7 8 16 29 39 42 42
9 8 7 7 7 6 6 6 6 6 6 7 7 7 7 7 7 7 7 6 6 6 7 6 6 6 6 7 7 6 7 7 7 8 8 8 8 7 7 8 8 7 8 8 7 5 5 5 7 9 9 9 9 8 7 7 7 8 13 28 43 48 49
9 8 8 7 7 7 7 7 8 8 8 8 9 9 9 9 9 9 9 8 8 8 8 8 7 7 7 7 7 8 8 8 9 9 9 9 9 8 9 9 9 8 7 8 8 6 6 5 7 11 12 11 11 9 7 7 9 12 16 30 48 55 58
10 10 10 9 9 9 10 10 9 10 11 11 11 11 11 11 11 11 10 10 10 9 9 9 9 8 9 8 8 9 8 9 9 9 10 10 9 10 10 9 9 9 9 9 8 7 6 5 8 14 15 15 15 13 9 7 9 15 23 39 59 67 69
11 11 12 12 12 11 12 12 12 13 14 13 13 14 13 13 13 13 12 11 11 11 10 10 10 10 9 9 10 9 9 9 9 10 10 10 10 12 13 15 13 9 9 10 9 8 7 6 8 13 17 21 23 17 8 7 17 27 35 51 71 78 79
14 14 14 13 14 14 14 15 15 16 17 16 16 16 16 15 14 13 12 11 10 10 10 10 9 10 9 9 10 9 10 10 9 10 10 9 11 10 15 28 27 15 11 11 12 12 9 8 9 10 17 26 26 16 9 16 34 45 50 66 83 87 86
17 17 17 16 16 16 17 17 18 19 20 20 19 18 18 17 16 16 15 14 13 12 11 11 10 10 9 10 11 10 10 10 9 10 9 10 11 9 22 45 44 25 16 19 25 24 14 9 9 8 12 21 23 17 12 24 47 62 70 84 94 93 91
19 19 19 19 19 18 19 20 21 22 22 21 21 24 27 26 24 23 23 22 22 20 19 19 18 17 17 16 16 15 14 12 11 11 10 11 11 9 26 56 61 44 34 38 45 42 29 16 8 7 10 13 20 22 14 27 63 84 91 96 97 95 94
21 21 21 22 22 22 22 22 23 25 25 27 31 35 41 43 41 39 37 36 38 36 36 36 35 35 36 34 31 30 27 22 16 14 12 12 12 9 20 52 77 78 72 70 68 58 41 21 6 9 11 7 17 23 15 36 80 99 97 99 98 95 95
22 22 23 25 26 25 25 24 26 30 34 38 42 45 53 61 63 61 58 57 59 60 62 63 61 60 59 58 58 55 50 41 31 26 22 18 18 16 19 41 73 92 96 94 91 81 59 31 16 14 9 7 20 24 19 50 92 101 97 100 98 95 97
24 24 26 29 29 28 26 26 31 40 45 49 52 59 70 78 80 76 71 69 71 75 79 82 84 84 78 76 79 77 73 67 58 51 46 39 33 25 21 31 55 83 99 101 102 98 76 51 42 32 16 11 17 19 31 72 102 101 98 101 98 99 102
27 28 29 31 33 32 29 32 42 50 53 58 67 76 86 91 93 89 80 74 74 81 86 88 90 93 91 89 88 85 87 90 87 81 77 72 62 46 35 31 38 60 82 90 99 103 87 75 77 69 51 37 29 35 64 96 105 100 100 102 100 101 103
34 35 35 35 38 41 39 42 53 59 63 72 81 88 94 97 98 95 86 79 80 86 92 93 93 93 93 94 92 88 92 99 101 99 98 95 90 80 66 48 38 51 70 79 90 93 83 85 96 94 88 82 73 78 95 103 101 100 101 100 98 98 99
40 41 42 41 45 53 53 52 60 69 75 83 89 94 99 101 99 95 91 87 85 87 91 96 97 96 93 94 93 92 97 101 101 103 103 101 100 100 92 73 64 76 87 87 88 83 74 85 99 98 98 101 98 99 103 100 98 98 96 96 96 94 96
47 45 48 53 57 61 63 63 69 78 84 88 93 99 102 101 99 99 96 90 85 85 90 96 98 97 94 93 92 92 98 101 101 102 103 101 100 102 100 93 90 96 97 91 90 89 85 93 101 99 99 100 99 100 101 99 95 93 96 98 95 95 99
54 50 54 62 64 67 73 75 76 82 90 95 99 101 101 100 99 100 98 93 88 89 94 97 96 95 94 94 94 95 98 100 101 102 101 100 100 100 100 100 101 102 99 94 94 98 100 101 100 99 101 101 100 100 100 99 99 98 100 99 97 100 103
61 59 60 64 67 72 79 82 83 89 96 100 101 100 100 101 100 100 100 97 92 93 96 96 93 91 89 90 94 98 100 99 100 101 100 101 101 100 99 100 100 101 101 100 100 101 102 102 100 100 101 100 100 101 99 99 102 102 101 101 101 103 103
67 67 64 64 69 76 81 87 94 98 100 100 100 100 100 100 100 100 101 98 95 97 98 96 93 91 86 86 93 98 100 100 100 100 101 102 100 97 97 100 101 100 100 100 101 100 100 100 100 100 101 101 100 100 99 97 99 102 102 102 102 102 101
74 72 65 63 71 78 83 92 101 102 100 100 100 100 100 100 100 101 101 100 97 96 95 95 94 91 89 91 96 100 100 100 99 100 103 103 99 96 98 101 100 100 100 100 100 100 99 100 100 100 101 100 97 97 99 99 100 102 102 100 100 100 100
78 72 64 64 71 76 83 96 102 99 99 101 100 99 100 100 100 101 100 100 99 96 95 97 95 94 96 99 101 101 100 99 99 101 101 99 98 99 100 101 100 100 100 100 100 100 100 99 100 101 100 97 94 96 101 103 102 101 101 100 100 100 100
77 69 65 67 71 72 79 91 93 87 92 101 101 98 100 100 100 100 100 100 100 99 99 99 98 99 101 101 100 100 100 100 100 100 98 96 99 102 101 100 100 100 100 100 100 100 100 100 100 100 98 96 97 99 102 102 101 101 100 100 100 100 100
73 66 66 71 73 70 71 80 82 80 89 101 97 93 99 101 99 100 100 99 100 100 97 96 99 102 101 99 99 99 99 100 100 100 99 99 101 102 100 100 101 99 99 100 100 100 100 100 100 100 99 99 100 102 102 101 101 101 100 100 101 100 100
71 67 68 70 73 71 66 70 79 83 91 95 88 87 97 102 100 100 100 99 101 101 94 91 96 101 100 99 101 100 99 101 100 99 100 100 100 100 100 101 100 100 100 100 100 100 100 99 100 101 101 100 100 101 102 101 101 101 100 100 100 99 99
72 68 68 68 72 71 64 68 82 91 93 93 91 91 96 100 101 101 99 99 101 100 93 92 96 99 99 100 101 100 100 100 100 99 100 100 100 100 100 100 100 101 102 100 99 100 100 100 100 101 100 100 100 102 102 100 100 100 100 100 100 99 100
77 73 70 68 73 74 64 65 84 97 97 97 99 99 98 100 102 100 98 99 101 100 97 97 99 99 99 100 100 100 99 99 100 100 100 99 100 100 100 99 99 100 102 102 100 100 100 100 101 101 100 100 101 101 101 99 100 101 100 100 102 101 101
91 87 81 75 79 83 73 67 81 98 101 99 100 100 100 101 98 94 94 97 100 100 100 100 100 100 100 100 100 97 95 94 97 100 101 100 101 100 98 94 92 94 99 101 101 100 100 100 100 100 100 100 101 101 101 100 101 101 100 100 101 101 101
99 98 95 89 89 94 91 85 90 100 101 99 100 100 100 101 99 95 96 99 100 100 99 99 100 100 99 100 101 99 94 91 91 94 96 95 95 95 94 93 91 92 96 100 101 100 100 100 100 100 100 100 100 100 100 100 101 100 100 100 100 100 101
100 100 101 98 95 96 97 96 99 102 101 99 100 100 99 100 100 100 100 100 100 100 99 98 99 100 99 99 100 100 100 98 95 94 91 89 88 90 93 96 97 97 99 102 101 99 100 100 100 100 100 100 100 101 101 101 101 100 100 100 100 100 101
100 100 101 101 99 98 96 94 94 97 100 101 101 100 99 99 99 100 100 100 100 101 99 97 98 99 99 99 98 98 100 100 100 100 98 95 94 95 97 99 100 100 102 102 100 99 100 100 100 100 100 100 100 101 101 101 101 100 100 100 100 100 100
102 101 100 100 102 102 100 99 97 97 100 103 102 101 99 99 99 101 101 99 100 101 100 99 99 100 100 100 99 99 100 100 100 100 100 100 100 100 101 102 102 102 102 101 100 100 100 100 100 100 100 100 100 100 101 101 101 100 100 100 100 100 100
101 101 100 100 102 103 103 103 104 103 102 102 101 100 101 100 100 101 101 100 99 100 100 100 100 101 101 100 99 100 100 100 100 100 99 100 101 100 100 101 100 101 101 100 100 100 100 100 100 100 100 100 100 100 100 101 101 100 100 100 100 100 100
94 100 103 101 99 100 100 100 100 102 101 99 98 98 99 101 102 100 99 100 100 100 100 100 100 100 100 100 100 100 100 99 100 100 100 100 100 100 100 100 100 100 100 100 100 100 100 100 100 100 100 100 100 100 100 100 100 100 100 100 100 100 100
89 95 103 105 101 100 100 99 99 98 95 96 98 94 89 91 99 101 99 99 100 99 99 100 100 100 100 100 99 100 100 100 100 100 100 100 100 100 100 101 100 100 100 100 100 100 100 100 100 100 100 100 99 100 100 100 100 100 100 100 100 100 100